[[{"header":{"parameterUnit":"m.s-1","parameterCategory":1,"la1":30.2991,"la2":30.254,"lo1":-89.0895,"lo2":-89.0444,"dy":0.0017,"dx":0.0017,"nx":28,"ny":28,"refTime":"2025-06-07T09:00:00:Z","depth":0,"parameterNumber":2,"parameterNumberName":"U-component_of_WINDS"},"data":[0,0,0,0,0,0,0,0,0,0,0,0,0,0,0,0,0,0,0,0,0,0,0,0,0,0,0,0,0,0,0,0,0,0,0,0,0,0,0,0,0,0,0,0,0,0,0,0,0,0,0,0,0,0,0,0,0,0,5.4591,5.4592,0,5.4689,5.469,5.4692,5.4623,5.462,5.4616,5.4614,5.4714,5.472,5.4725,0,0,0,0,0,0,0,0,0,0,0,0,0,5.4341,5.4346,5.4591,5.4592,5.4593,5.4689,5.469,5.4692,5.4623,5.4619,5.4616,5.4612,5.4712,5.4719,5.4726,0,0,0,0,0,0,0,0,0,0,0,0,0,5.4446,5.4348,5.4591,5.4571,5.457,5.4689,5.4691,5.4692,5.4624,5.4619,5.4615,5.461,5.471,5.4718,5.4727,5.4871,0,0,5.4752,5.4756,0,0,0,0,0,0,0,0,5.444,5.4455,5.4572,5.4572,5.4572,5.4639,5.4639,5.4752,5.4625,5.4603,5.4613,5.4608,5.4693,5.4702,5.4731,5.4876,5.488,5.4753,5.4758,5.4761,5.4764,0,0,0,0,0,0,0,5.4433,5.445,5.463,5.4574,5.4574,5.4556,5.4566,5.466,5.4673,5.4605,5.46,5.4613,5.4692,5.4723,5.4733,5.4881,5.4753,5.476,5.4765,5.4768,5.5144,5.5149,0,0,0,0,0,0,5.4428,5.4445,5.4627,5.4633,5.4493,5.4564,5.4575,5.4622,5.4672,5.4675,5.4617,5.4609,5.4711,5.4723,5.4736,5.4904,5.4761,5.4769,5.4774,5.5139,5.5145,5.5151,0,0,0,0,0,0,5.4422,5.4444,5.4623,5.4538,5.4559,5.4573,5.4627,5.4626,5.4657,5.4681,5.4682,5.4646,5.4708,5.4724,5.4837,5.4907,5.4773,5.4781,5.5134,5.5141,5.5148,5.5245,0,0,0,0,0,0,5.4416,5.4443,5.4499,5.4539,5.4564,5.4723,5.4631,5.4632,5.4672,5.4663,5.4709,5.4712,5.4706,5.4825,5.4845,5.4916,5.4787,5.5127,5.5137,5.5146,5.5235,5.5254,5.5271,0,0,0,0,0,5.4407,5.4523,5.4502,5.4524,5.4633,5.4727,5.4741,5.4731,5.4678,5.4733,5.4747,5.4711,5.4897,5.4837,5.4859,5.4934,5.5123,5.5134,5.5145,5.5227,5.5251,5.5271,0,0,0,0,0,0,5.449,5.4528,5.4505,5.4638,5.4679,5.4715,5.4784,5.4757,5.4815,5.4804,5.4789,5.48,5.4917,5.4937,5.487,5.5074,5.5001,5.5018,5.5056,5.5079,5.5096,5.5087,5.4794,0,0,0,0,0,5.4524,5.4597,5.4626,5.474,5.4762,5.477,5.481,5.4799,5.4842,5.4859,5.4882,5.4925,5.4992,5.5037,5.5101,5.5239,5.5245,5.5301,5.5319,5.5333,5.5347,5.5417,5.544,5.5188,5.5188,5.5187,0,0,5.4595,5.4624,5.4671,5.4758,5.4789,5.4863,5.4785,5.4869,5.4923,5.4872,5.4978,5.4996,5.5043,5.5167,5.5223,5.5188,5.5418,5.5348,5.5359,5.5364,5.5431,5.5455,5.5476,5.5195,5.5194,5.5193,0,0,5.476,5.4792,5.4888,5.4921,5.4968,5.4972,5.4996,5.5035,5.5045,5.5151,5.5113,5.5178,5.5296,5.533,5.5362,5.5539,5.5505,5.556,5.5652,5.5721,5.5741,5.5758,5.5817,5.5839,5.5574,5.5574,5.5574,0,5.4842,5.4953,5.4941,5.5026,5.5064,5.5021,5.5117,5.5149,5.5216,5.5242,5.5201,5.5346,5.5375,5.5504,5.5547,5.5576,5.56,5.5553,5.5739,5.5756,5.5773,5.5828,5.5851,5.558,5.5579,5.5579,5.5578,0,5.5048,5.5126,5.5198,5.5262,5.5308,5.5399,5.5399,5.5447,5.5432,5.544,5.5547,5.558,5.5648,5.5679,5.5666,5.5806,5.5782,5.5741,5.5667,5.5803,5.5855,5.5877,5.5589,5.5587,5.5585,5.5583,0,0,5.5268,5.5323,5.5349,5.5376,5.5425,5.5484,5.5572,5.5638,5.5678,5.5725,5.5796,5.5896,5.5857,5.5894,5.5884,5.5945,5.6078,5.5896,5.5897,5.5925,5.623,5.6257,5.6282,5.6057,5.6061,5.6065,5.6224,0,5.5433,5.5585,5.5576,5.5718,5.5788,5.5747,5.5823,5.5861,5.5871,5.593,5.5941,5.601,5.5956,5.5977,5.6036,5.6049,5.6138,5.6038,5.612,5.6123,5.6106,5.631,5.6341,5.649,5.6245,5.6249,5.6251,0,5.5645,5.5698,5.5847,5.5882,5.5911,5.5979,5.6037,5.6096,5.6137,5.6139,5.618,5.6159,5.6246,5.6172,5.6289,5.6221,5.6255,5.6266,5.6272,5.6276,5.6193,5.6316,5.6537,5.6558,5.6284,5.6281,5.6279,0,5.5785,5.5894,5.5996,5.6021,5.6066,5.6114,5.6135,5.6172,5.6211,5.6262,5.6286,5.6348,5.638,5.6427,5.6422,5.637,5.654,5.6467,5.6542,5.6542,5.6577,5.6574,5.6803,5.6606,5.6606,5.6605,5.6605,0,5.5967,5.6059,5.6059,5.6121,5.6221,5.6211,5.631,5.6326,5.6359,5.6422,5.6392,5.6452,5.6445,5.6505,5.6502,5.6597,5.6614,5.6616,5.6614,5.6617,5.6616,5.6636,5.6623,5.6611,5.661,5.6609,5.6608,0,5.6139,5.6143,5.6251,5.6285,5.6295,5.6367,5.6395,5.6453,5.646,5.6541,5.6559,5.657,5.6639,5.664,5.672,5.6717,5.6832,5.6821,5.6818,5.6814,5.6887,5.6879,5.7133,5.7164,5.6951,5.6953,5.6955,0,5.6253,5.6322,5.6363,5.6403,5.6427,5.6493,5.6532,5.6524,5.6565,5.6616,5.6667,5.6734,5.6785,5.6897,5.6911,5.6971,5.6958,5.7043,5.6966,5.6966,5.6954,5.6948,5.6953,5.7056,5.7059,5.7061,5.7062,0,5.6454,5.6452,5.651,5.6568,5.6615,5.6661,5.6703,5.6738,5.6734,5.6783,5.6852,5.6892,5.6972,5.7037,5.7094,5.7115,5.7087,5.7087,5.7106,5.7108,5.7102,5.7102,5.6854,5.708,5.7078,5.7077,5.7076,5.7075,5.6598,5.6655,5.6692,5.6757,5.6787,5.6827,5.6882,5.6895,5.6953,5.7017,5.7009,5.7086,5.7123,5.7197,5.7222,5.7281,5.7251,5.7281,5.7287,5.7294,5.7299,5.7096,5.7292,5.7291,5.7291,5.7291,5.729,0,5.6793,5.6814,5.6874,5.6933,5.6983,5.6954,5.6998,5.7041,5.7109,5.7146,5.7197,5.7276,5.7338,5.7357,5.7417,5.746,5.7448,5.7475,5.747,5.7474,5.7325,5.73,5.7483,5.7483,5.7483,5.7483,5.7483,5.7483,5.69,5.6995,5.6997,5.7107,5.7127,5.7202,5.7229,5.7264,5.7293,5.7382,5.7433,5.7445,5.7474,5.7535,5.759,5.7594,5.7615,5.7647,5.7645,5.7505,5.7485,5.7467,5.7443,5.7653,5.7653,5.7789,5.779,5.7791]},{"header":{"parameterUnit":"m.s-1","parameterCategory":1,"la1":30.2991,"la2":30.254,"lo1":-89.0895,"lo2":-89.0444,"dy":0.0017,"dx":0.0017,"nx":28,"ny":28,"refTime":"2025-06-07T09:00:00:Z","depth":0,"parameterNumber":3,"parameterNumberName":"V-component_of_WINDS"},"data":[0,0,0,0,0,0,0,0,0,0,0,0,0,0,0,0,0,0,0,0,0,0,0,0,0,0,0,0,0,0,0,0,0,0,0,0,0,0,0,0,0,0,0,0,0,0,0,0,0,0,0,0,0,0,0,0,0,0,6.3196,6.3197,0,6.3318,6.332,6.3321,6.3297,6.3295,6.3293,6.3291,6.341,6.3415,6.3421,0,0,0,0,0,0,0,0,0,0,0,0,0,6.2934,6.2939,6.3196,6.3197,6.3199,6.3318,6.332,6.3322,6.3298,6.3295,6.3292,6.329,6.3409,6.3415,6.3421,0,0,0,0,0,0,0,0,0,0,0,0,0,6.3051,6.2941,6.3195,6.3201,6.3203,6.3318,6.332,6.3322,6.3298,6.3295,6.3292,6.3289,6.3406,6.3414,6.3422,6.3536,0,0,6.3446,6.3449,0,0,0,0,0,0,0,0,6.3045,6.3061,6.3199,6.3201,6.3203,6.3289,6.3272,6.3394,6.3299,6.3262,6.3291,6.3287,6.3372,6.3383,6.3413,6.3542,6.3547,6.3447,6.3451,6.3455,6.3457,0,0,0,0,0,0,0,6.3037,6.3056,6.3244,6.3201,6.3204,6.3196,6.3209,6.3295,6.3334,6.3265,6.3264,6.3279,6.3373,6.3405,6.3415,6.3549,6.3446,6.3453,6.3458,6.3461,6.3776,6.3779,0,0,0,0,0,0,6.3028,6.3049,6.324,6.3248,6.3115,6.3203,6.3218,6.3265,6.3333,6.334,6.3281,6.3277,6.3394,6.3406,6.3419,6.3557,6.3455,6.3462,6.3466,6.3772,6.3777,6.3781,0,0,0,0,0,0,6.3022,6.3045,6.3235,6.3148,6.3172,6.3211,6.3264,6.3269,6.3302,6.3346,6.3352,6.3308,6.3391,6.3408,6.3507,6.3561,6.3465,6.3473,6.3768,6.3774,6.3779,6.3833,0,0,0,0,0,0,6.3015,6.3043,6.3089,6.3149,6.3177,6.3323,6.3268,6.3274,6.3316,6.3312,6.3372,6.3379,6.339,6.3496,6.3515,6.357,6.3479,6.3763,6.377,6.3777,6.3827,6.384,6.3851,0,0,0,0,0,6.3005,6.3098,6.3091,6.3114,6.3235,6.3327,6.3342,6.3355,6.332,6.3365,6.3393,6.3377,6.3552,6.3506,6.3528,6.3585,6.376,6.3768,6.3776,6.3821,6.3837,6.385,0,0,0,0,0,0,6.304,6.3106,6.3099,6.3215,6.3265,6.3322,6.338,6.3372,6.3432,6.3425,6.3436,6.345,6.3551,6.3578,6.3526,6.3699,6.3651,6.3664,6.3677,6.3693,6.3705,6.3695,6.3485,0,0,0,0,0,6.3062,6.3133,6.3186,6.3282,6.3309,6.334,6.338,6.3386,6.3438,6.3459,6.3494,6.3544,6.361,6.3653,6.3716,6.3831,6.3842,6.3881,6.3893,6.3902,6.3913,6.3974,6.3991,6.3808,6.3808,6.3807,0,0,6.3106,6.3151,6.3195,6.3291,6.3331,6.3402,6.3358,6.3435,6.3488,6.347,6.3566,6.3594,6.3649,6.3756,6.3805,6.3782,6.3966,6.3913,6.392,6.3926,6.3984,6.4001,6.4016,6.3813,6.3812,6.3811,0,0,6.3223,6.3265,6.335,6.3391,6.3453,6.3473,6.3493,6.3552,6.357,6.3667,6.3655,6.3716,6.383,6.387,6.3905,6.4037,6.4023,6.4057,6.412,6.4179,6.4193,6.4206,6.4251,6.4268,6.4068,6.4068,6.4068,0,6.327,6.3379,6.3394,6.3473,6.3514,6.3504,6.3588,6.3627,6.3705,6.3733,6.3707,6.3849,6.3886,6.4001,6.4033,6.4063,6.4084,6.405,6.419,6.4203,6.4215,6.4259,6.4276,6.4072,6.4071,6.4071,6.407,0,6.3433,6.3508,6.3569,6.3647,6.3695,6.3776,6.3801,6.3848,6.3849,6.3871,6.3969,6.4013,6.4084,6.4112,6.4114,6.4227,6.4211,6.4188,6.4139,6.4236,6.4277,6.4294,6.4077,6.4075,6.4074,6.4073,0,0,6.3575,6.366,6.3682,6.3717,6.3784,6.3841,6.3921,6.3993,6.4032,6.4086,6.4152,6.4248,6.4227,6.4267,6.4273,6.4325,6.4424,6.4295,6.4296,6.4316,6.455,6.4566,6.4585,6.4416,6.4419,6.4422,6.4544,0,6.3697,6.384,6.3855,6.3982,6.405,6.4041,6.411,6.4157,6.418,6.424,6.4264,6.4332,6.43,6.4323,6.4375,6.4401,6.4471,6.4393,6.4474,6.4477,6.446,6.4607,6.4624,6.4738,6.456,6.4563,6.4565,0,6.3858,6.3919,6.4053,6.411,6.414,6.4202,6.4268,6.4326,6.4379,6.4391,6.4436,6.4435,6.4515,6.4464,6.4573,6.4519,6.4554,6.4572,6.4576,6.4583,6.4526,6.4616,6.4775,6.4791,6.4591,6.4589,6.4587,0,6.3946,6.4062,6.4156,6.4187,6.4256,6.4299,6.433,6.438,6.4421,6.4479,6.4505,6.457,6.4606,6.4655,6.467,6.4633,6.4778,6.4729,6.4788,6.4788,6.4818,6.4816,6.4983,6.4843,6.4842,6.4842,6.4842,0,6.408,6.4162,6.4197,6.4255,6.4346,6.4362,6.445,6.4478,6.4522,6.4584,6.4579,6.4637,6.4655,6.4714,6.4727,6.4813,6.483,6.484,6.4842,6.484,6.4839,6.4861,6.4853,6.4847,6.4846,6.4845,6.4844,0,6.4193,6.422,6.4323,6.438,6.4397,6.4461,6.4509,6.4564,6.4586,6.4663,6.4682,6.4716,6.4786,6.4807,6.4891,6.4899,6.5,6.4996,6.4983,6.4983,6.504,6.5034,6.5227,6.5252,6.5097,6.5098,6.51,0,6.4276,6.4339,6.4404,6.4446,6.4479,6.4546,6.4589,6.4607,6.4651,6.4716,6.4762,6.4832,6.4889,6.5001,6.5031,6.5095,6.5091,6.5154,6.51,6.5095,6.509,6.5085,6.5091,6.5164,6.5165,6.5167,6.5168,0,6.442,6.443,6.4494,6.4562,6.4614,6.4667,6.4719,6.4753,6.4777,6.4827,6.49,6.4944,6.5031,6.5099,6.5164,6.5192,6.5183,6.5185,6.5201,6.5199,6.5188,6.5193,6.5009,6.518,6.5179,6.5178,6.5177,6.5177,6.452,6.4575,6.4629,6.4699,6.474,6.4789,6.4843,6.4872,6.4934,6.5007,6.5013,6.5091,6.514,6.5226,6.5259,6.5318,6.5299,6.5324,6.533,6.5335,6.5339,6.518,6.533,6.533,6.5329,6.5329,6.5329,0,6.4661,6.4696,6.4761,6.4834,6.4889,6.4879,6.4935,6.4981,6.505,6.5098,6.5155,6.5237,6.5304,6.534,6.5405,6.5446,6.5443,6.5462,6.5458,6.5465,6.5353,6.5332,6.5463,6.5463,6.5463,6.5463,6.5463,6.5463,6.4742,6.4834,6.4851,6.4962,6.4996,6.5074,6.5107,6.5151,6.5189,6.5282,6.5338,6.5362,6.5404,6.5473,6.5533,6.5541,6.5564,6.5586,6.5592,6.5486,6.5473,6.546,6.5439,6.5591,6.5591,6.5698,6.5699,6.57]}]]